Flag for France Weather past 2 weeks in Paris, France

Now
79 °F

Passing clouds.


Feels Like: 79 °F
Forecast: 64 / 84 °F
Wind: 10 mph from South

Location: Villacoublay

Current Time: Jul 6, 2015 at 2:07:37 PM

Latest Report: Jul 6, 2015 at 1:30 PM


Visibility: N/A

Pressure: 30.12 "Hg

Humidity: 42%

Dew point: 54 °F

Location of ParisLocation

Historic Weather in Paris — Graph

°F

Paris temperature yesterday

Maximum temperature yesterday: 79 °F (at 12:30 PM)
Minimum temperature yesterday: 64 °F (at 11:00 PM)
Average temperature yesterday: 71 °F

Past Weeks' High & Low Weather Summary

 TemperatureHumidityPressure
High100 °F (Jul 1, 5:00 PM)94% (Jun 22, 4:00 AM)30.27 "Hg (Jun 22, 4:00 AM)
Low48 °F (Jun 23, 4:00 AM)17% (Jun 30, 4:30 PM)29.83 "Hg (Jun 22, 6:30 PM)
Average72 °F57%30.10 "Hg
* Reported Jun 21 1:00 PM — Jul 6 1:00 PM, Paris, Weather by CustomWeather, © 2015

Note: Actual official high and low records may vary slightly from our data, if they occured in-between our weather recording intervals... More about our weather records

Advertising

Paris weather history for previous 24 hours

 ConditionsComfort  
Time TempWeatherWind HumidityBarometerVisibility
1:00 PM
Mon, Jul 6
77 °FScattered clouds.8 mph47%30.15 "HgN/A
12:30 PM77 °FScattered clouds.6 mph44%30.15 "HgN/A
12:00 PM75 °FScattered clouds.5 mph50%30.15 "HgN/A
11:30 AM73 °FPassing clouds.7 mph53%30.18 "HgN/A
11:00 AM72 °FPassing clouds.9 mph53%30.18 "HgN/A
10:30 AM70 °FPassing clouds.9 mph57%30.18 "HgN/A
10:00 AM70 °FPassing clouds.9 mph57%30.18 "HgN/A
9:30 AM68 °FPassing clouds.7 mph60%30.18 "HgN/A
9:00 AM66 °FScattered clouds.7 mph64%30.21 "HgN/A
8:30 AM64 °FScattered clouds.6 mph68%30.21 "HgN/A
8:00 AM64 °FSunny.3 mph73%30.21 "Hg10 mi
7:30 AM63 °FPassing clouds.1 mph77%30.18 "HgN/A
7:00 AM61 °FPassing clouds.1 mph83%30.21 "HgN/A
6:30 AM57 °FClear.1 mph88%30.21 "Hg10 mi
6:00 AM57 °FPassing clouds.2 mph88%30.18 "HgN/A
5:30 AM61 °FClear.2 mph77%30.18 "Hg10 mi
5:00 AM61 °FClear.2 mph77%30.18 "Hg10 mi
4:30 AM63 °FClear.2 mph73%30.18 "Hg10 mi
4:00 AM63 °FClear.3 mph77%30.18 "Hg10 mi
3:30 AM63 °FPassing clouds.5 mph77%30.18 "HgN/A
3:00 AM63 °FClear.2 mph77%30.18 "Hg10 mi
2:30 AM59 °FClear.No wind88%30.18 "Hg10 mi
2:00 AM59 °FClear.No wind82%30.18 "Hg10 mi
1:30 AM63 °FClear.2 mph73%30.18 "Hg10 mi
1:00 AM63 °FClear.1 mph73%30.18 "Hg10 mi
12:30 AM63 °FClear.2 mph73%30.18 "Hg10 mi
12:00 AM63 °FClear.3 mph73%30.18 "Hg10 mi
11:30 PM
Sun, Jul 5
64 °FPassing clouds.3 mph68%30.15 "HgN/A
11:00 PM64 °FClear.3 mph68%30.15 "Hg10 mi
10:30 PM66 °FSunny.6 mph64%30.15 "Hg10 mi
10:00 PM68 °FSunny.8 mph60%30.12 "Hg10 mi
9:30 PM68 °FSunny.N/A64%30.12 "Hg10 mi
9:00 PM70 °FPassing clouds.10 mph64%30.09 "HgN/A
8:30 PM70 °FSunny.12 mph69%30.09 "Hg10 mi
8:00 PM73 °FPassing clouds.16 mph61%30.09 "HgN/A
7:30 PM75 °FSunny.16 mph50%30.09 "Hg10 mi
7:00 PM79 °FSunny.N/A42%30.07 "Hg10 mi
6:30 PM79 °FPassing clouds.9 mph42%30.07 "HgN/A
6:00 PM77 °FPassing clouds.8 mph51%30.07 "HgN/A
5:30 PM75 °FPassing clouds.6 mph54%30.07 "HgN/A
5:00 PM73 °FSunny.5 mph57%30.07 "Hg10 mi
4:30 PM72 °FPassing clouds.6 mph61%30.07 "HgN/A
4:00 PM70 °FMild.9 mph69%30.07 "HgN/A
3:30 PM68 °FPartly sunny.6 mph78%30.07 "HgN/A
3:00 PM68 °FThundershowers. Broken clouds.6 mph78%30.07 "HgN/A
2:30 PM70 °FThundershowers. Cloudy.12 mph64%30.07 "HgN/A
2:00 PM72 °FPartly sunny.14 mph61%30.04 "HgN/A
Weather by CustomWeather, © 2015

See weather overviewHow to use our weather pages